Location: 06700 Villanueva de la Serena, Badajoz, España
(38.9722°N, 5.7878°W)
Time: 09:57:25
(UTC+01:00)

ISS - Visible Passes

Search period start: 05 December 2025 00:00
Search period end: 15 December 2025 00:00
Orbit: 416 x 421 km, 51.6° (Epoch: 04 December)

Date Brightness Start Highest point End Pass type
(mag) Time Alt. Az. Time Alt. Az. Time Alt. Az.
10 Dec -0.6 07:57:27 10° S 08:00:01 20° SE 08:02:34 10° E visible
11 Dec -0.2 07:11:06 10° SSE 07:12:16 11° SE 07:13:26 10° ESE visible
12 Dec -3.2 07:57:21 10° SW 08:00:40 64° SE 08:04:00 10° ENE visible
13 Dec -2.0 07:09:40 10° SSW 07:12:45 34° SE 07:15:51 10° ENE visible
14 Dec -1.1 06:23:12 14° SSE 06:24:52 19° SE 06:27:22 10° E visible
14 Dec -3.3 07:58:12 10° WSW 08:01:25 43° NNW 08:04:40 10° NE visible
